H1 CPF 2 NER 2022 9 15 9 258 01 glonass143 H2 2007501 9143 46805 2022 9 15 0 0 0 2022 9 18 23 45 0 900 1 1 0 0 0 1 H9 10 0 59837 0.00000 0 11396685.543 22790220.710 1001213.839 10 0 59837 900.00000 0 11491927.373 22654698.395 -2211103.347 10 0 59837 1800.00000 0 11372521.685 22177055.050 -5380414.001 10 0 59837 2700.00000 0 10997771.899 21395351.124 -8445061.497 10 0 59837 3600.00000 0 10336483.839 20357005.899 -11345410.162 10 0 59837 4500.00000 0 9368534.784 19116726.651 -14025013.268 10 0 59837 5400.00000 0 8085981.995 17734149.066 -16431718.664 10 0 59837 6300.00000 0 6493662.375 16271288.957 -18518689.838 10 0 59837 7200.00000 0 4609256.557 14789913.289 -20245321.931 10 0 59837 8100.00000 0 2462813.429 13348941.725 -21578034.611 10 0 59837 9000.00000 0 95753.884 12001988.381 -22490926.331 10 0 59837 9900.00000 0 -2440605.317 10795147.343 -22966277.315 10 0 59837 10800.00000 0 -5086946.614 9765114.851 -22994891.788 10 0 59837 11700.00000 0 -7778187.097 8937726.631 -22576273.161 10 0 59837 12600.00000 0 -10445961.500 8326971.152 -21718629.089 10 0 59837 13500.00000 0 -13021249.670 7934519.365 -20438706.721 10 0 59837 14400.00000 0 -15437039.450 7749789.582 -18761461.587 10 0 59837 15300.00000 0 -17630914.363 7750543.655 -16719566.846 10 0 59837 16200.00000 0 -19547458.776 7903988.123 -14352772.655 10 0 59837 17100.00000 0 -21140380.849 8168332.783 -11707128.245 10 0 59837 18000.00000 0 -22374265.342 8494739.866 -8834082.119 10 0 59837 18900.00000 0 -23225883.960 8829580.621 -5789478.093 10 0 59837 19800.00000 0 -23685009.482 9116903.138 -2632466.932 10 0 59837 20700.00000 0 -23754700.713 9301006.500 575644.820 10 0 59837 21600.00000 0 -23451047.568 9329011.956 3772586.200 10 0 59837 22500.00000 0 -22802388.229 9153322.092 6896329.960 10 0 59837 23400.00000 0 -21848032.342 8733863.853 9886293.787 10 0 59837 24300.00000 0 -20636544.838 8040020.584 12684511.355 10 0 59837 25200.00000 0 -19223663.092 7052171.383 15236750.710 10 0 59837 26100.00000 0 -17669935.217 5762772.731 17493558.688 10 0 59837 27000.00000 0 -16038178.531 4176936.504 19411211.807 10 0 59837 27900.00000 0 -14390864.374 2312479.442 20952556.035 10 0 59837 28800.00000 0 -12787538.158 199441.143 22087719.978 10 0 59837 29700.00000 0 -11282381.719 -2120910.442 22794688.590 10 0 59837 30600.00000 0 -9922018.888 -4597546.034 23059726.994 10 0 59837 31500.00000 0 -8743655.010 -7171554.964 22877646.685 10 0 59837 32400.00000 0 -7773627.218 -9778361.628 22251909.153 10 0 59837 33300.00000 0 -7026425.267 -12350188.019 21194564.735 10 0 59837 34200.00000 0 -6504223.404 -14818661.558 19726027.375 10 0 59837 35100.00000 0 -6196942.536 -17117461.248 17874688.827 10 0 59837 36000.00000 0 -6082840.045 -19184893.153 15676378.749 10 0 59837 36900.00000 0 -6129602.613 -20966288.676 13173680.043 10 0 59837 37800.00000 0 -6295896.287 -22416125.978 10415111.621 10 0 59837 38700.00000 0 -6533308.682 -23499786.033 7454193.483 10 0 59837 39600.00000 0 -6788601.468 -24194869.506 4348411.625 10 0 59837 40500.00000 0 -7006177.835 -24492018.924 1158102.537 10 0 59837 41400.00000 0 -7130660.149 -24395211.119 -2054721.105 10 0 59837 42300.00000 0 -7109468.006 -23921507.169 -5227580.225 10 0 59837 43200.00000 0 -6895286.492 -23100270.065 -8298750.557 10 0 59837 44100.00000 0 -6448318.873 -21971882.877 -11208470.674 10 0 59837 45000.00000 0 -5738226.948 -20586021.473 -13900112.380 10 0 59837 45900.00000 0 -4745675.452 -18999554.809 -16321289.877 10 0 59837 46800.00000 0 -3463413.712 -17274161.570 -18424885.373 10 0 59837 47700.00000 0 -1896847.458 -15473763.939 -20169970.596 10 0 59837 48600.00000 0 -64075.321 -13661886.841 -21522606.005 10 0 59837 49500.00000 0 2004612.776 -11899053.893 -22456502.091 10 0 59837 50400.00000 0 4267755.260 -10240329.579 -22953529.971 10 0 59837 51300.00000 0 6674214.778 -8733110.579 -23004071.644 10 0 59837 52200.00000 0 9165088.438 -7415258.459 -22607203.452 10 0 59837 53100.00000 0 11675953.085 -6313651.342 -21770709.526 10 0 59837 54000.00000 0 14139352.367 -5443214.255 -20510925.309 10 0 59837 54900.00000 0 16487422.205 -4806467.640 -18852414.514 10 0 59837 55800.00000 0 18654545.377 -4393611.632 -16827486.013 10 0 59837 56700.00000 0 20579924.833 -4183141.057 -14475560.290 10 0 59837 57600.00000 0 22209968.732 -4142963.830 -11842397.946 10 0 59837 58500.00000 0 23500387.971 -4231974.204 -8979205.484 10 0 59837 59400.00000 0 24417919.168 -4402013.238 -5941636.039 10 0 59837 60300.00000 0 24941601.732 -4600132.564 -2788704.695 10 0 59837 61200.00000 0 25063556.360 -4771064.887 418360.106 10 0 59837 62100.00000 0 24789233.312 -4859796.056 3617306.458 10 0 59837 63000.00000 0 24137121.052 -4814129.424 6746066.845 10 0 59837 63900.00000 0 23137928.404 -4587133.750 9743960.246 10 0 59837 64800.00000 0 21833275.414 -4139371.003 12552865.221 10 0 59837 65700.00000 0 20273948.403 -3440809.850 15118341.434 10 0 59837 66600.00000 0 18517792.785 -2472344.002 17390678.223 10 0 59837 67500.00000 0 16627331.900 -1226851.194 19325850.579 10 0 59837 68400.00000 0 14667211.257 290252.180 20886364.793 10 0 59837 69300.00000 0 12701574.419 2060984.730 22041978.229 10 0 59837 70200.00000 0 10791479.305 4055304.169 22770280.156 10 0 59837 71100.00000 0 8992461.639 6232122.080 23057123.131 10 0 59837 72000.00000 0 7352346.130 8540788.488 22896897.037 10 0 59837 72900.00000 0 5909395.519 10922986.057 22292640.719 10 0 59837 73800.00000 0 4690873.673 13314956.832 21255988.862 10 0 59837 74700.00000 0 3712081.931 15649970.425 19806954.680 10 0 59837 75600.00000 0 2975908.280 17860932.436 17973551.796 10 0 59837 76500.00000 0 2472907.868 19883025.717 15791261.638 10 0 59837 77400.00000 0 2181911.261 21656275.127 13302355.546 10 0 59837 78300.00000 0 2071134.839 23127929.248 10555083.652 10 0 59837 79200.00000 0 2099746.595 24254559.562 7602745.279 10 0 59837 80100.00000 0 2219821.285 25003788.910 4502658.276 10 0 59837 81000.00000 0 2378602.215 25355576.241 1315046.920 10 0 59837 81900.00000 0 2520973.626 25303003.069 -1898130.036 10 0 59837 82800.00000 0 2592038.443 24852527.812 -5074387.983 10 0 59837 83700.00000 0 2539691.305 24023696.729 -8151937.642 10 0 59837 84600.00000 0 2317076.781 22848323.103 -11070894.283 10 0 59837 85500.00000 0 1884827.356 21369168.967 -13774450.490 10 0 59838 0.00000 0 1212985.106 19638184.945 -16209988.604 10 0 59838 900.00000 0 282523.925 17714381.398 -18330111.751 10 0 59838 1800.00000 0 -913592.449 15661423.009 -20093569.544 10 0 59838 2700.00000 0 -2369863.794 13545045.001 -21466064.560 10 0 59838 3600.00000 0 -4068241.557 11430401.935 -22420920.441 10 0 59838 4500.00000 0 -5978653.642 9379459.443 -22939600.089 10 0 59838 5400.00000 0 -8060044.690 7448538.201 -23012063.911 10 0 59838 6300.00000 0 -10261888.996 5686112.538 -22636961.513 10 0 59838 7200.00000 0 -12526113.272 4130955.198 -21821653.446 10 0 59838 8100.00000 0 -14789349.311 2810704.902 -20582063.003 10 0 59838 9000.00000 0 -16985422.780 1740915.426 -18942361.178 10 0 59838 9900.00000 0 -19047974.319 924624.640 -16934491.238 10 0 59838 10800.00000 0 -20913103.725 352459.920 -14597542.311 10 0 59838 11700.00000 0 -22521926.896 3273.839 -11976984.358 10 0 59838 12600.00000 0 -23822938.821 -154718.264 -9123779.639 10 0 59838 13500.00000 0 -24774084.131 -162348.350 -6093388.179 10 0 59838 14400.00000 0 -25344448.891 -67521.872 -2944686.817 10 0 59838 15300.00000 0 -25515503.311 77055.349 261176.765 10 0 59838 16200.00000 0 -25281843.901 216352.530 3461972.461 10 0 59838 17100.00000 0 -24651404.688 295586.214 6595595.293 10 0 59838 18000.00000 0 -23645129.317 262780.200 9601268.378 10 0 59838 18900.00000 0 -22296118.487 71204.611 12420717.999 10 0 59838 19800.00000 0 -20648288.924 -318409.084 14999298.208 10 0 59838 20700.00000 0 -18754600.418 -935970.642 17287043.464 10 0 59838 21600.00000 0 -16674925.103 -1800531.302 19239629.612 10 0 59838 22500.00000 0 -14473647.765 -2919245.103 20819225.344 10 0 59838 23400.00000 0 -12217096.811 -4286835.334 21995218.470 10 0 59838 24300.00000 0 -9970912.191 -5885589.243 22744803.849 10 0 59838 25200.00000 0 -7797458.829 -7685882.270 23053422.298 10 0 59838 26100.00000 0 -5753392.173 -9647211.183 22915042.488 10 0 59838 27000.00000 0 -3887475.916 -11719694.518 22332280.596 10 0 59838 27900.00000 0 -2238741.576 -13845979.414 21316355.249 10 0 59838 28800.00000 0 -835065.623 -15963476.946 19886878.147 10 0 59838 29700.00000 0 307777.406 -18006834.319 18071483.664 10 0 59838 30600.00000 0 1186546.912 -19910542.116 15905303.537 10 0 59838 31500.00000 0 1810435.681 -21611568.683 13430295.777 10 0 59838 32400.00000 0 2200441.317 -23051912.135 10694439.684 10 0 59838 33300.00000 0 2388236.256 -24180963.378 7750811.614 10 0 59838 34200.00000 0 2414584.068 -24957580.836 4656558.775 10 0 59838 35100.00000 0 2327369.111 -25351789.278 1471790.604 10 0 59838 36000.00000 0 2179323.136 -25346030.595 -1741590.812 10 0 59838 36900.00000 0 2025545.579 -24935912.978 -4921098.130 10 0 59838 37800.00000 0 1920923.295 -24130426.070 -8004879.891 10 0 59838 38700.00000 0 1917560.057 -22951612.219 -10932930.914 10 0 59838 39600.00000 0 2062325.834 -21433707.022 -13648267.372 10 0 59838 40500.00000 0 2394630.916 -19621784.933 -16098042.894 10 0 59838 41400.00000 0 2944520.432 -17569966.629 -18234583.224 10 0 59838 42300.00000 0 3731171.074 -15339263.480 -20016318.678 10 0 59838 43200.00000 0 4761854.776 -12995149.628 -21408595.980 10 0 59838 44100.00000 0 6031414.159 -10604963.535 -22384353.584 10 0 59838 45000.00000 0 7522272.794 -8235247.908 -22924647.411 10 0 59838 45900.00000 0 9204980.696 -5949139.122 -23019017.075 10 0 59838 46800.00000 0 11039272.859 -3803914.935 -22665685.799 10 0 59838 47700.00000 0 12975596.909 -1848802.413 -21871590.504 10 0 59838 48600.00000 0 14957046.316 -123136.760 -20652241.873 10 0 59838 49500.00000 0 16921618.500 1345053.206 -19031417.356 10 0 59838 50400.00000 0 18804703.437 2539975.109 -17040693.395 10 0 59838 51300.00000 0 20541698.759 3458481.324 -14718826.140 10 0 59838 52200.00000 0 22070641.943 4109940.215 -12110992.886 10 0 59838 53100.00000 0 23334749.395 4515577.447 -9267909.211 10 0 59838 54000.00000 0 24284756.191 4707316.933 -6244839.221 10 0 59838 54900.00000 0 24880958.586 4726171.880 -3100518.379 10 0 59838 55800.00000 0 25094873.853 4620255.259 103989.741 10 0 59838 56700.00000 0 24910448.237 4442494.977 3306480.298 10 0 59838 57600.00000 0 24324762.734 4248151.224 6444814.293 10 0 59838 58500.00000 0 23348207.563 4092241.610 9458122.286 10 0 59838 59400.00000 0 22004118.443 4026983.339 12287981.363 10 0 59838 60300.00000 0 20327890.248 4099360.651 14879542.738 10 0 59838 61200.00000 0 18365605.326 4348920.278 17182588.438 10 0 59838 62100.00000 0 16172233.806 4805887.833 19152497.242 10 0 59838 63000.00000 0 13809480.690 5489684.537 20751101.955 10 0 59838 63900.00000 0 11343368.996 6407906.761 21947422.181 10 0 59838 64800.00000 0 8841658.755 7555811.693 22718259.337 10 0 59838 65700.00000 0 6371208.148 8916331.352 23048643.080 10 0 59838 66600.00000 0 3995385.369 10460615.344 22932121.035 10 0 59838 67500.00000 0 1771637.465 12149080.915 22370886.452 10 0 59838 68400.00000 0 -250684.106 13932927.868 21375741.195 10 0 59838 69300.00000 0 -2032151.837 15756056.609 19965894.327 10 0 59838 70200.00000 0 -3544669.419 17557310.684 18168599.432 10 0 59838 71100.00000 0 -4772400.017 19272951.492 16018636.675 10 0 59838 72000.00000 0 -5712177.364 20839262.722 13557648.555 10 0 59838 72900.00000 0 -6373382.937 22195176.194 10833341.140 10 0 59838 73800.00000 0 -6777294.692 23284809.391 7898565.237 10 0 59838 74700.00000 0 -6955934.919 24059808.009 4810294.728 10 0 59838 75600.00000 0 -6950466.073 24481394.604 1628521.452 10 0 59838 76500.00000 0 -6809202.622 24522036.372 -1584911.954 10 0 59838 77400.00000 0 -6585323.413 24166660.775 -4767518.161 10 0 59838 78300.00000 0 -6334382.091 23413366.745 -7857386.214 10 0 59838 79200.00000 0 -6111721.812 22273600.386 -10794393.015 10 0 59838 80100.00000 0 -5969904.777 20771786.833 -13521380.687 10 0 59838 81000.00000 0 -5956266.584 18944432.977 -15985276.084 10 0 59838 81900.00000 0 -6110700.073 16838738.194 -18138129.923 10 0 59838 82800.00000 0 -6463763.567 14510771.115 -19938054.683 10 0 59838 83700.00000 0 -7035194.503 12023288.723 -21350042.711 10 0 59838 84600.00000 0 -7832892.178 9443288.996 -22346648.537 10 0 59838 85500.00000 0 -8852413.271 6839399.512 -22908522.141 10 0 59839 0.00000 0 -10077001.985 4279211.183 -23024783.135 10 0 59839 900.00000 0 -11478154.735 1826666.774 -22693228.873 10 0 59839 1800.00000 0 -13016694.364 -460383.810 -21920372.764 10 0 59839 2700.00000 0 -14644311.263 -2532364.861 -20721312.629 10 0 59839 3600.00000 0 -16305505.311 -4349799.363 -19119431.705 10 0 59839 4500.00000 0 -17939847.857 -5884703.101 -17145938.522 10 0 59839 5400.00000 0 -19484468.807 -7121491.419 -14839254.783 10 0 59839 6300.00000 0 -20876664.477 -8057362.429 -12244263.296 10 0 59839 7200.00000 0 -22056516.700 -8702142.359 -9411430.855 10 0 59839 8100.00000 0 -22969413.252 -9077601.446 -6395823.307 10 0 59839 9000.00000 0 -23568363.769 -9216270.957 -3256032.209 10 0 59839 9900.00000 0 -23816013.926 -9159812.788 -53034.332 10 0 59839 10800.00000 0 -23686273.432 -8957011.882 3150993.569 10 0 59839 11700.00000 0 -23165489.613 -8661477.406 6293881.413 10 0 59839 12600.00000 0 -22253117.570 -8329150.602 9314670.213 10 0 59839 13500.00000 0 -20961858.971 -8015725.195 12154790.893 10 0 59839 14400.00000 0 -19317263.812 -7774089.557 14759194.805 10 0 59839 15300.00000 0 -17356811.835 -7651898.638 17077414.365 10 0 59839 16200.00000 0 -15128511.856 -7689377.935 19064533.873 10 0 59839 17100.00000 0 -12689077.025 -7917451.868 20682052.496 10 0 59839 18000.00000 0 -10101751.507 -8356275.173 21898623.488 10 0 59839 18900.00000 0 -7433878.116 -9014229.065 22690656.229 10 0 59839 19800.00000 0 -4754306.904 -9887424.602 23042770.161 10 0 59839 20700.00000 0 -2130751.145 -10959734.605 22948092.354 10 0 59839 21600.00000 0 372800.878 -12203353.671 22408393.187 10 0 59839 22500.00000 0 2698512.221 -13579863.992 21434057.426 10 0 59839 23400.00000 0 4796862.136 -15041763.613 20043890.786 10 0 59839 24300.00000 0 6628460.627 -16534394.602 18264765.009 10 0 59839 25200.00000 0 8165438.054 -17998191.695 16131107.296 10 0 59839 26100.00000 0 9392352.501 -19371158.320 13684242.918 10 0 59839 27000.00000 0 10306577.524 -20591466.991 10971602.658 10 0 59839 27900.00000 0 10918154.421 -21600075.353 8045809.440 10 0 59839 28800.00000 0 11249115.432 -22343247.932 4963661.211 10 0 59839 29700.00000 0 11332306.643 -22774877.070 1785029.408 10 0 59839 30600.00000 0 11209760.509 -22858504.571 -1428305.716 10 0 59839 31500.00000 0 10930687.099 -22568957.755 -4613859.843 10 0 59839 32400.00000 0 10549169.594 -21893529.751 -7709665.512 10 0 59839 33300.00000 0 10121662.279 -20832652.957 -10655484.641 10 0 59839 34200.00000 0 9704397.789 -19400036.044 -13393988.132 10 0 59839 35100.00000 0 9350814.411 -17622257.652 -15871878.749 10 0 59839 36000.00000 0 9109113.292 -15537832.904 -18040934.670 10 0 59839 36900.00000 0 9020049.921 -13195791.325 -19858952.761 10 0 59839 37800.00000 0 9115054.101 -10653825.312 -21290572.906 10 0 59839 38700.00000 0 9414758.599 -7976086.316 -22307967.252 10 0 59839 39600.00000 0 9927999.156 -5230720.767 -22891380.981 10 0 59839 40500.00000 0 10651328.436 -2487248.370 -23029514.408 10 0 59839 41400.00000 0 11569064.734 186108.130 -22719739.284 10 0 59839 42300.00000 0 12653873.495 2725030.758 -21968145.472 10 0 59839 43200.00000 0 13867857.304 5071543.634 -20789417.476 10 0 59839 44100.00000 0 15164108.496 7176179.111 -19206543.501 10 0 59839 45000.00000 0 16488659.015 8999783.393 -17250363.000 10 0 59839 45900.00000 0 17782745.471 10514887.644 -14958961.701 10 0 59839 46800.00000 0 18985294.027 11706588.851 -12376926.050 10 0 59839 47700.00000 0 20035520.438 12572905.235 -9554471.815 10 0 59839 48600.00000 0 20875535.767 13124593.137 -6546464.003 10 0 59839 49500.00000 0 21452848.027 13384434.935 -3411347.396 10 0 59839 50400.00000 0 21722654.400 13386029.630 -210008.873 10 0 59839 51300.00000 0 21649827.575 13172138.671 2995406.113 10 0 59839 52200.00000 0 21210512.654 12792658.099 6142699.631 10 0 59839 53100.00000 0 20393267.545 12302303.610 9170826.300 10 0 59839 54000.00000 0 19199698.942 11758106.982 12021073.857 10 0 59839 54900.00000 0 17644567.169 11216829.894 14638196.540 10 0 59839 55800.00000 0 15755355.351 10732404.345 16971479.634 10 0 59839 56700.00000 0 13571320.627 10353507.419 18975715.138 10 0 59839 57600.00000 0 11142066.469 10121372.239 20612070.457 10 0 59839 58500.00000 0 8525694.938 10067926.865 21848834.032 10 0 59839 59400.00000 0 5786614.810 10214339.046 22662024.399 10 0 59839 60300.00000 0 2993095.435 10570027.820 23035851.598 10 0 59839 61200.00000 0 214666.698 11132183.498 22963022.542 10 0 59839 62100.00000 0 -2480528.515 11885816.569 22444884.696 10 0 59839 63000.00000 0 -5028320.930 12804334.161 21491405.207 10 0 59839 63900.00000 0 -7370934.484 13850620.816 20120985.452 10 0 59839 64800.00000 0 -9459139.658 14978579.394 18360113.890 10 0 59839 65700.00000 0 -11254051.977 16135068.641 16242862.904 10 0 59839 66600.00000 0 -12728501.452 17262157.180 13810238.360 10 0 59839 67500.00000 0 -13867916.395 18299600.093 11109393.340 10 0 59839 68400.00000 0 -14670684.975 19187434.551 8192720.301 10 0 59839 69300.00000 0 -15147979.557 19868585.334 5116838.598 10 0 59839 70200.00000 0 -15323051.407 20291370.244 1941496.572 10 0 59839 71100.00000 0 -15230025.662 20411799.060 -1271590.583 10 0 59839 72000.00000 0 -14912247.668 20195568.036 -4459944.207 10 0 59839 72900.00000 0 -14420250.953 19619664.503 -7561542.903 10 0 59839 73800.00000 0 -13809433.357 18673512.449 -10516036.090 10 0 59839 74700.00000 0 -13137540.316 17359609.338 -13265925.788 10 0 59839 75600.00000 0 -12462062.642 15693625.973 -15757692.836 10 0 59839 76500.00000 0 -11837659.733 13703963.964 -17942844.827 10 0 59839 77400.00000 0 -11313718.030 11430788.432 -19778864.754 10 0 59839 78300.00000 0 -10932148.631 8924575.715 -21230041.545 10 0 59839 79200.00000 0 -10725517.662 6244236.301 -22268166.234 10 0 59839 80100.00000 0 -10715588.714 3454891.076 -22873080.244 10 0 59839 81000.00000 0 -10912339.003 625393.418 -23033065.386 10 0 59839 81900.00000 0 -11313490.778 -2174299.920 -22745068.331 10 0 59839 82800.00000 0 -11904577.566 -4875799.840 -22014755.568 10 0 59839 83700.00000 0 -12659542.258 -7414887.133 -20856398.127 10 0 59839 84600.00000 0 -13541841.572 -9733938.236 -19292588.674 10 0 59839 85500.00000 0 -14506010.028 -11784074.208 -17353796.704 10 0 59840 0.00000 0 -15499617.171 -13526944.340 -15077770.965 10 0 59840 900.00000 0 -16465535.803 -14936072.117 -12508799.587 10 0 59840 1800.00000 0 -17344424.006 -15997706.475 -9696845.688 10 0 59840 2700.00000 0 -18077317.868 -16711147.470 -6696571.396 10 0 59840 3600.00000 0 -18608224.036 -17088532.054 -3566272.476 10 0 59840 4500.00000 0 -18886603.162 -17154091.586 -366743.494 10 0 59840 5400.00000 0 -18869639.322 -16942913.827 2839903.975 10 0 59840 6300.00000 0 -18524199.679 -16499262.959 5991446.889 10 0 59840 7200.00000 0 -17828401.782 -15874529.589 9026756.334 10 0 59840 8100.00000 0 -16772722.488 -15124898.059 11886979.807 10 0 59840 9000.00000 0 -15360601.704 -14308829.922 14516677.402 10 0 59840 9900.00000 0 -13608515.436 -13484469.818 16864890.158 10 0 59840 10800.00000 0 -11545514.589 -12707082.922 18886120.507 10 0 59840 11700.00000 0 -9212248.193 -12026631.424 20541206.559 10 0 59840 12600.00000 0 -6659511.008 -11485591.445 21798074.081 10 0 59840 13500.00000 0 -3946374.896 -11117101.549 22632352.511 10 0 59840 14400.00000 0 -1137980.391 -10943520.032 23027843.814 10 0 59840 15300.00000 0 1696921.169 -10975451.219 22976835.642 10 0 59840 16200.00000 0 4488574.478 -11211281.475 22480253.019 10 0 59840 17100.00000 0 7168869.457 -11637244.571 21547645.549 10 0 59840 18000.00000 0 9673924.240 -12228014.146 20197009.957 10 0 59840 18900.00000 0 11946495.994 -12947799.118 18454450.729 10 0 59840 19800.00000 0 13938120.456 -13751896.920 16353684.368 10 0 59840 20700.00000 0 15610891.805 -14588640.192 13935395.882 10 0 59840 21600.00000 0 16938809.242 -15401655.863 11246458.801 10 0 59840 22500.00000 0 17908634.305 -16132342.077 8339032.871 10 0 59840 23400.00000 0 18520223.130 -16722458.832 5269556.237 10 0 59840 24300.00000 0 18786319.796 -17116722.918 2097651.215 10 0 59840 25200.00000 0 18731819.517 -17265297.057 -1115035.229 10 0 59840 26100.00000 0 18392532.818 -17126067.204 -4306033.387 10 0 59840 27000.00000 0 17813503.101 -16666610.595 -7413271.246 10 0 59840 27900.00000 0 17046949.060 -15865769.951 -10376288.964 10 0 59840 28800.00000 0 16149919.430 -14714765.866 -13137422.783 10 0 59840 29700.00000 0 15181759.902 -13217798.924 -15642934.501 10 0 59840 30600.00000 0 14201499.964 -11392114.698 -17844063.773 10 0 59840 31500.00000 0 13265270.836 -9267527.670 -19697982.058 10 0 59840 32400.00000 0 12423864.126 -6885422.968 -21168629.338 10 0 59840 33300.00000 0 11720534.722 -4297276.853 -22227417.178 10 0 59840 34200.00000 0 11189140.832 -1562757.266 -22853784.476 10 0 59840 35100.00000 0 10852699.595 1252516.759 -23035595.358 10 0 59840 36000.00000 0 10722418.921 4079463.815 -22769371.820 10 0 59840 36900.00000 0 10797245.957 6848173.539 -22060356.945 10 0 59840 37800.00000 0 11063950.646 9490575.550 -20922407.886 10 0 59840 38700.00000 0 11497740.254 11943033.271 -19377720.970 10 0 59840 39600.00000 0 12063378.284 14148755.224 -17456394.577 10 0 59840 40500.00000 0 12716759.991 16059924.142 -15195838.514 10 0 59840 41400.00000 0 13406877.415 17639456.165 -12640041.531 10 0 59840 42300.00000 0 14078090.501 18862317.741 -9838711.480 10 0 59840 43200.00000 0 14672607.955 19716346.639 -6846305.038 10 0 59840 44100.00000 0 15133072.710 20202544.147 -3720966.089 10 0 59840 45000.00000 0 15405142.515 20334827.747 -523393.807 10 0 59840 45900.00000 0 15439956.431 20139256.241 2684337.342 10 0 59840 46800.00000 0 15196382.970 19652761.328 5839982.451 10 0 59840 47700.00000 0 14642954.872 18921440.248 8882332.263 10 0 59840 48600.00000 0 13759408.868 17998482.351 11752397.068 10 0 59840 49500.00000 0 12537765.365 16941817.540 14394545.621 10 0 59840 50400.00000 0 10982902.414 15811585.839 16757577.281 10 0 59840 51300.00000 0 9112599.416 14667534.531 18795707.169 10 0 59840 52200.00000 0 6957048.002 13566451.886 20469446.052 10 0 59840 53100.00000 0 4557849.718 12559744.725 21746358.643 10 0 59840 54000.00000 0 1966541.123 11691260.739 22601686.542 10 0 59840 54900.00000 0 -757293.626 10995446.099 23018824.509 10 0 59840 55800.00000 0 -3548245.709 10495914.924 22989641.384 10 0 59840 56700.00000 0 -6337549.380 10204489.979 22514639.736 10 0 59840 57600.00000 0 -9055693.723 10120754.530 21602951.119 10 0 59840 58500.00000 0 -11635071.465 10232134.114 20272166.611 10 0 59840 59400.00000 0 -14012556.246 10514505.044 18548005.236 10 0 59840 60300.00000 0 -16131902.381 10933304.563 16463825.702 10 0 59840 61200.00000 0 -17945867.971 11445096.604 14059989.866 10 0 59840 62100.00000 0 -19417973.450 11999527.860 11383089.149 10 0 59840 63000.00000 0 -20523822.398 12541592.283 8485047.855 10 0 59840 63900.00000 0 -21251929.308 13014108.764 5422120.113 10 0 59840 64800.00000 0 -21604019.596 13360307.345 2253799.405 10 0 59840 65700.00000 0 -21594789.057 13526414.268 -958338.281 10 0 59840 66600.00000 0 -21251132.813 13464125.799 -4151834.861 10 0 59840 67500.00000 0 -20610876.271 13132865.080 -7264570.288 10 0 59840 68400.00000 0 -19721061.804 12501725.206 -10235977.928 10 0 59840 69300.00000 0 -18635863.816 11551014.875 -13008230.570 10 0 59840 70200.00000 0 -17414220.729 10273339.738 -15527373.126 10 0 59840 71100.00000 0 -16117284.446 8674172.248 -17744379.243 10 0 59840 72000.00000 0 -14805795.537 6771884.574 -19616110.524 10 0 59840 72900.00000 0 -13537495.391 4597241.916 -21106159.393 10 0 59840 73800.00000 0 -12364684.813 2192376.311 -22185559.033 10 0 59840 74700.00000 0 -11332032.081 -390716.875 -22833346.590 10 0 59840 75600.00000 0 -10474722.658 -3092097.656 -23036968.973 10 0 59840 76500.00000 0 -9817028.113 -5846135.819 -22792523.654 10 0 59840 77400.00000 0 -9371353.845 -8584007.322 -22104830.178 10 0 59840 78300.00000 0 -9137804.936 -11236329.161 -20987331.368 10 0 59840 79200.00000 0 -9104287.436 -13735823.346 -19461826.473 10 0 59840 80100.00000 0 -9247139.842 -16019899.467 -17558041.740 10 0 59840 81000.00000 0 -9532267.122 -18033048.822 -15313046.987 10 0 59840 81900.00000 0 -9916728.513 -19728951.049 -12770529.697 10 0 59840 82800.00000 0 -10350711.172 -21072206.132 -9979940.990 10 0 59840 83700.00000 0 -10779805.595 -22039620.497 -6995530.299 10 0 59840 84600.00000 0 -11147485.979 -22620994.596 -3875287.722 10 0 59840 85500.00000 0 -11397690.211 -22819380.248 -679815.015 99